Weather History for KEAU - December, 2012

Change the Weather History Date:

Thursday, December 27, 2012

  Actual Average Record
Temperature  
Mean Temperature 11 °F 16 °F  
Max Temperature 23 °F 24 °F 45 °F (1994)
Min Temperature -2 °F 7 °F -25 °F (1933)
Degree Days  
Heating Degree Days 54 49  
Month to date heating degree days 1102 1232  
Since 1 July heating degree days 2823 2978  
Cooling Degree Days 0 0  
Month to date cooling degree days 0 0  
Year to date cooling degree days 830 579  
Moisture  
Dew Point 6 °F    
Average Humidity 79    
Maximum Humidity 95    
Minimum Humidity 62    
Precipitation  
Precipitation T in 0.03 in 1.50 in (1904)
Month to date precipitation 1.78 0.90  
Year to date precipitation 24.19 30.88  
Snow  
Snow T in 0.30 in 15.00 in (1904)
Month to date snowfall 19.4 8.2  
Since 1 July snowfall 20.3 14.5  
Snow Depth 4.00 in    
Sea Level Pressure  
Sea Level Pressure 30.25 in    
Wind  
Wind Speed 3 mph (ENE)    
Max Wind Speed 8 mph    
Max Gust Speed 10 mph    
Visibility 10 miles    
Events Snow    
T = Trace of Precipitation, MM = Missing Value Source: NWS Daily Summary

Daily Weather History Graph

Daily Weather History Graph

Search for Another Location

Airport or City:

Trip Planner

Search our weather history database for the weather conditions in past years. The results will help you decide how hot, cold, wet, or windy it might be!

Date:

Astronomy

Dec. 27, 2012 Rise Set
Actual Time 7:43 AM CST 4:31 PM CST
Civil Twilight 7:09 AM CST 5:05 PM CST
Nautical Twilight 6:32 AM CST 5:42 PM CST
Astronomical Twilight 5:56 AM CST 6:18 PM CST
Moon 4:16 PM CST (12/27) 6:52 AM CST (12/27)
Length of Visible Light 9h 55m
Length of Day
8h 48m
Full, 100% of the Moon is Illuminated
Dec 27
Full
Dec 28
Full
Jan 4
Last Quarter
Jan 11
New
Jan 18
First Quarter

Hourly Weather History & Observations

Time (CST) Temp. Windchill Dew Point Humidity Pressure Visibility Wind Dir Wind Speed Gust Speed Precip Events Conditions
12:56 AM -0.9 °F - -5.1 °F 83% 30.28 in 10.0 mi Calm Calm - N/A   Clear
1:56 AM -0.9 °F - -6.0 °F 79% 30.30 in 10.0 mi Calm Calm - N/A   Scattered Clouds
2:15 AM -0.4 °F - -4.0 °F 85% 30.24 in 10.0 mi Calm Calm - N/A   Mostly Cloudy
2:31 AM 1.4 °F - -4.0 °F 78% 30.24 in 10.0 mi Calm Calm - N/A   Mostly Cloudy
3:56 AM -0.0 °F - -4.0 °F 83% 30.31 in 10.0 mi Calm Calm - N/A   Mostly Cloudy
4:56 AM 1.9 °F - -0.9 °F 88% 30.30 in 10.0 mi Calm Calm - N/A   Clear
5:56 AM 3.9 °F - -0.9 °F 80% 30.30 in 10.0 mi Calm Calm - N/A   Clear
6:56 AM 6.1 °F - 1.9 °F 83% 30.31 in 10.0 mi Calm Calm - N/A   Partly Cloudy
7:56 AM 6.1 °F - 1.9 °F 83% 30.30 in 10.0 mi Calm Calm - N/A   Overcast
8:56 AM 9.0 °F - 3.9 °F 80% 30.30 in 10.0 mi Calm Calm - N/A   Clear
9:56 AM 15.1 °F 7.7 °F 9.0 °F 77% 30.31 in 10.0 mi NE 4.6 mph - N/A   Clear
10:56 AM 19.9 °F 12.1 °F 10.9 °F 68% 30.30 in 10.0 mi ENE 5.8 mph - N/A   Clear
11:56 AM 21.0 °F 13.4 °F 12.0 °F 68% 30.26 in 10.0 mi NE 5.8 mph - N/A   Clear
12:56 PM 21.0 °F 12.4 °F 10.9 °F 65% 30.24 in 10.0 mi ENE 6.9 mph - N/A   Clear
2:56 PM 23.0 °F - 12.0 °F 63% 30.25 in 10.0 mi Calm Calm - N/A   Scattered Clouds
3:07 PM 23.0 °F - 12.2 °F 63% 30.19 in 10.0 mi Calm Calm - N/A   Mostly Cloudy
3:32 PM 21.2 °F 16.4 °F 12.2 °F 68% 30.18 in 10.0 mi ENE 3.5 mph - N/A   Mostly Cloudy
3:56 PM 21.9 °F 14.5 °F 12.0 °F 66% 30.24 in 10.0 mi ENE 5.8 mph - N/A   Overcast
4:56 PM 21.0 °F 13.4 °F 12.9 °F 71% 30.23 in 10.0 mi ENE 5.8 mph - N/A   Overcast
5:56 PM 21.0 °F 11.4 °F 12.0 °F 68% 30.22 in 10.0 mi East 8.1 mph - N/A   Overcast
6:56 PM 21.0 °F 14.6 °F 12.0 °F 68% 30.21 in 10.0 mi ENE 4.6 mph - N/A   Overcast
8:56 PM 19.9 °F 14.9 °F 12.0 °F 71% 30.20 in 10.0 mi NE 3.5 mph - N/A   Overcast
9:56 PM 19.9 °F - 12.9 °F 74% 30.20 in 6.0 mi Calm Calm - 0.00 in Snow Light Snow
10:56 PM 18.0 °F 11.1 °F 12.0 °F 78% 30.19 in 10.0 mi ENE 4.6 mph - N/A   Overcast
11:56 PM 18.0 °F 11.1 °F 12.0 °F 78% 30.18 in 10.0 mi NE 4.6 mph - N/A   Overcast